GW2622 Weather Reports


Display with metric or nautical units.
time (UTC)temp
F
wind
direction
speed
MPH
gust
MPH
rain 1hr
in
rain 24hr
in
rain mn
in
humidity
%
barometer
mb
20260904005514 86 184 3.0 3.0 0.00 0.00 0.00 73 1011.0
20260904005009 86 236 2.0 2.0 0.00 0.00 0.00 73 1010.9
20260904004505 86 219 2.0 3.0 0.00 0.00 0.00 72 1010.8
20260904004005 86 175 3.0 3.0 0.00 0.00 0.00 72 1011.0
20260904003501 87 216 2.0 2.0 0.00 0.00 0.00 72 1010.7
20260904002956 87 183 3.0 3.0 0.00 0.00 0.00 71 1010.8
20260904002452 87 211 2.0 2.0 0.00 0.00 0.00 70 1010.7
20260904001950 88 211 2.0 2.0 0.00 0.00 0.00 70 1010.8
20260904001447 88 200 2.0 2.0 0.00 0.00 0.00 68 1010.8
20260904000941 89 272 1.0 3.0 0.00 0.00 0.00 68 1010.8
20260904000440 89 180 3.0 3.0 0.00 0.00 0.00 66 1010.8
20260903235936 90 202 3.0 5.0 0.00 0.00 0.00 65 1010.8
20260903235432 90 187 3.0 5.0 0.00 0.00 0.00 64 1010.7
20260903234926 91 181 3.0 7.0 0.00 0.00 0.00 63 1010.7
20260903234422 91 177 4.0 6.0 0.00 0.00 0.00 63 1010.7
20260903233918 91 199 4.0 7.0 0.00 0.00 0.00 63 1010.7
20260903233413 92 222 2.0 6.0 0.00 0.00 0.00 62 1010.6
20260903232908 92 199 2.0 6.0 0.00 0.00 0.00 61 1010.7
20260903232403 92 178 5.0 6.0 0.00 0.00 0.00 61 1010.7
20260903231902 92 190 5.0 8.0 0.00 0.00 0.00 60 1010.6
20260903231357 93 271 2.0 5.0 0.00 0.00 0.00 60 1010.8
20260903230853 93 166 7.0 10.0 0.00 0.00 0.00 58 1010.8
20260903230348 93 169 4.0 6.0 0.00 0.00 0.00 59 1010.6
20260903225844 93 191 3.0 7.0 0.00 0.00 0.00 59 1010.5
20260903225340 94 230 3.0 5.0 0.00 0.00 0.00 59 1010.5
20260903224836 94 181 5.0 6.0 0.00 0.00 0.00 58 1010.7
20260903224332 94 163 4.0 9.0 0.00 0.00 0.00 59 1010.4
20260903223827 94 160 4.0 6.0 0.00 0.00 0.00 58 1010.4
20260903223326 94 166 4.0 8.0 0.00 0.00 0.00 56 1010.4
20260903222821 94 175 3.0 7.0 0.00 0.00 0.00 56 1010.5
20260903222320 95 134 6.0 10.0 0.00 0.00 0.00 55 1010.5
20260903221815 95 182 5.0 9.0 0.00 0.00 0.00 57 1010.6
20260903221314 95 179 7.0 8.0 0.00 0.00 0.00 57 1010.8
20260903220812 95 147 4.0 7.0 0.00 0.00 0.00 57 1010.9
20260903220301 95 161 6.0 8.0 0.00 0.00 0.00 56 1010.8
20260903215759 95 197 6.0 7.0 0.00 0.00 0.00 56 1011.0
20260903215256 96 217 5.0 9.0 0.00 0.00 0.00 55 1011.0
20260903214753 96 263 3.0 6.0 0.00 0.00 0.00 55 1010.8
20260903214244 96 207 8.0 10.0 0.00 0.00 0.00 54 1010.9
20260903213738 96 179 5.0 9.0 0.00 0.00 0.00 53 1011.0
20260903213234 96 162 7.0 15.0 0.00 0.00 0.00 53 1011.1
20260903212730 95 166 9.0 10.0 0.00 0.00 0.00 55 1011.2
20260903212226 96 120 6.0 9.0 0.00 0.00 0.00 54 1011.2
20260903211724 96 196 5.0 11.0 0.00 0.00 0.00 53 1011.2
20260903211222 96 225 8.0 10.0 0.00 0.00 0.00 55 1011.3
20260903210717 96 209 5.0 8.0 0.00 0.00 0.00 54 1011.1
20260903210213 96 256 5.0 7.0 0.00 0.00 0.00 54 1011.2
20260903205707 95 167 3.0 7.0 0.00 0.00 0.00 57 1011.3
20260903205206 96 153 5.0 6.0 0.00 0.00 0.00 56 1011.3
20260903204702 96 244 3.0 8.0 0.00 0.00 0.00 56 1011.4
20260903204158 96 150 4.0 7.0 0.00 0.00 0.00 55 1011.3
20260903203653 94 264 5.0 8.0 0.00 0.00 0.00 57 1011.6
20260903203148 95 198 6.0 8.0 0.00 0.00 0.00 56 1011.7
20260903202643 96 219 4.0 7.0 0.00 0.00 0.00 58 1011.5
20260903202138 95 148 5.0 8.0 0.00 0.00 0.00 57 1011.7
20260903201638 95 252 5.0 8.0 0.00 0.00 0.00 57 1011.7
20260903201137 96 194 4.0 9.0 0.00 0.00 0.00 54 1011.6
20260903200632 96 234 5.0 8.0 0.00 0.00 0.00 54 1011.8
20260903200127 96 253 3.0 11.0 0.00 0.00 0.00 55 1011.7
20260903195623 95 199 6.0 10.0 0.00 0.00 0.00 55 1012.1
20260903195119 95 130 6.0 9.0 0.00 0.00 0.00 55 1012.1
20260903194614 95 180 4.0 8.0 0.00 0.00 0.00 56 1012.1
20260903194114 96 216 9.0 10.0 0.00 0.00 0.00 55 1012.3
20260903193610 96 180 5.0 7.0 0.00 0.00 0.00 57 1012.2
20260903193105 95 174 5.0 7.0 0.00 0.00 0.00 56 1012.4
20260903192602 95 247 3.0 7.0 0.00 0.00 0.00 59 1012.3
20260903192057 94 199 3.0 9.0 0.00 0.00 0.00 58 1012.2
20260903191553 95 176 4.0 5.0 0.00 0.00 0.00 58 1012.2
20260903191048 94 281 1.0 3.0 0.00 0.00 0.00 59 1012.4
20260903190547 94 222 4.0 7.0 0.00 0.00 0.00 58 1012.4
20260903190047 94 177 4.0 6.0 0.00 0.00 0.00 57 1012.7
20260903185542 94 199 2.0 6.0 0.00 0.00 0.00 58 1012.4
20260903185038 94 255 3.0 6.0 0.00 0.00 0.00 58 1012.5
20260903184534 94 218 4.0 9.0 0.00 0.00 0.00 59 1012.5
20260903184029 92 208 6.0 8.0 0.00 0.00 0.00 59 1012.4
20260903183528 92 219 4.0 6.0 0.00 0.00 0.00 62 1012.7
20260903183024 92 221 5.0 6.0 0.00 0.00 0.00 61 1012.8
20260903182522 93 212 5.0 7.0 0.00 0.00 0.00 58 1012.9
20260903182019 95 210 9.0 13.0 0.00 0.00 0.00 57 1012.8
20260903181517 94 279 3.0 5.0 0.00 0.00 0.00 57 1012.7
20260903181017 95 259 5.0 7.0 0.00 0.00 0.00 57 1012.8
20260903180513 94 228 3.0 9.0 0.00 0.00 0.00 58 1012.7
20260903180012 94 230 4.0 9.0 0.00 0.00 0.00 58 1012.7
20260903175511 93 239 5.0 7.0 0.00 0.00 0.00 58 1012.8
20260903175010 93 216 7.0 9.0 0.00 0.00 0.00 57 1012.8
20260903174505 93 224 5.0 8.0 0.00 0.00 0.00 59 1012.8
20260903174000 93 222 5.0 9.0 0.00 0.00 0.00 59 1012.8
20260903173455 93 203 9.0 10.0 0.00 0.00 0.00 59 1012.7
20260903172950 94 178 5.0 10.0 0.00 0.00 0.00 55 1012.9
20260903172445 94 285 1.0 5.0 0.00 0.00 0.00 57 1012.9
20260903171941 93 213 7.0 11.0 0.00 0.00 0.00 57 1012.9
20260903171436 93 273 2.0 10.0 0.00 0.00 0.00 59 1013.1
20260903170936 93 233 5.0 8.0 0.00 0.00 0.00 59 1013.2
20260903170431 94 223 3.0 5.0 0.00 0.00 0.00 58 1012.9
20260903165930 93 213 5.0 8.0 0.00 0.00 0.00 58 1013.1
20260903165424 94 233 3.0 6.0 0.00 0.00 0.00 56 1013.1
20260903164918 93 188 3.0 7.0 0.00 0.00 0.00 56 1013.0
20260903164414 93 264 2.0 6.0 0.00 0.00 0.00 58 1013.0
20260903163913 93 220 5.0 7.0 0.00 0.00 0.00 57 1013.0
20260903163409 93 232 5.0 8.0 0.00 0.00 0.00 59 1012.9
20260903162905 92 291 3.0 7.0 0.00 0.00 0.00 59 1012.9
20260903162402 92 228 4.0 6.0 0.00 0.00 0.00 59 1013.0
20260903161857 91 231 5.0 7.0 0.00 0.00 0.00 60 1013.0
20260903161352 92 233 2.0 6.0 0.00 0.00 0.00 62 1013.3
20260903160848 92 216 6.0 7.0 0.00 0.00 0.00 60 1013.3
20260903160346 92 246 2.0 3.0 0.00 0.00 0.00 57 1013.1
20260903155845 90 227 2.0 6.0 0.00 0.00 0.00 62 1013.3
20260903155341 90 291 2.0 6.0 0.00 0.00 0.00 61 1013.4
20260903154837 91 241 6.0 7.0 0.00 0.00 0.00 61 1013.2
20260903154333 91 262 3.0 3.0 0.00 0.00 0.00 60 1013.3
20260903153833 90 271 1.0 5.0 0.00 0.00 0.00 62 1013.2
20260903153329 89 254 3.0 8.0 0.00 0.00 0.00 63 1013.2
20260903152825 89 256 3.0 6.0 0.00 0.00 0.00 65 1013.2
20260903152320 90 267 2.0 5.0 0.00 0.00 0.00 64 1013.2
20260903151815 89 262 2.0 5.0 0.00 0.00 0.00 65 1013.2
20260903151311 88 285 2.0 5.0 0.00 0.00 0.00 66 1013.3
20260903150811 89 270 3.0 5.0 0.00 0.00 0.00 68 1013.4
20260903150311 88 263 0.0 3.0 0.00 0.00 0.00 67 1013.2
20260903145806 88 246 3.0 5.0 0.00 0.00 0.00 68 1013.2
20260903145301 86 220 3.0 3.0 0.00 0.00 0.00 70 1013.4
20260903144800 86 243 3.0 5.0 0.00 0.00 0.00 70 1013.3
20260903144256 86 223 1.0 5.0 0.00 0.00 0.00 70 1013.3
20260903143752 85 258 2.0 3.0 0.00 0.00 0.00 71 1013.3
20260903143248 85 247 2.0 3.0 0.00 0.00 0.00 72 1013.4
20260903142743 84 274 1.0 3.0 0.00 0.00 0.00 74 1013.4
20260903142239 83 221 1.0 5.0 0.00 0.00 0.00 75 1013.4
20260903141735 83 196 4.0 5.0 0.00 0.00 0.00 73 1013.3
20260903141230 83 219 3.0 5.0 0.00 0.00 0.00 73 1013.3
20260903140725 83 246 2.0 6.0 0.00 0.00 0.00 75 1013.1
20260903140220 82 265 1.0 5.0 0.00 0.00 0.00 76 1013.4
20260903135716 82 273 3.0 3.0 0.00 0.00 0.00 75 1013.6
20260903135211 81 302 1.0 3.0 0.00 0.00 0.00 78 1013.5
20260903134710 81 283 2.0 3.0 0.00 0.00 0.00 77 1013.3
20260903134206 81 234 3.0 5.0 0.00 0.00 0.00 78 1013.4
20260903133704 80 237 3.0 3.0 0.00 0.00 0.00 78 1013.3
20260903133200 80 189 3.0 5.0 0.00 0.00 0.00 78 1013.4
20260903132700 81 273 1.0 1.0 0.00 0.00 0.00 77 1013.4
20260903132200 80 310 0.0 0.0 0.00 0.00 0.00 79 1013.4
20260903131655 80 316 0.0 1.0 0.00 0.00 0.00 81 1013.5
20260903131149 79 296 0.0 1.0 0.00 0.00 0.00 81 1013.6
20260903130644 80 306 0.0 0.0 0.00 0.00 0.00 80 1013.5
20260903130143 78 306 0.0 0.0 0.00 0.00 0.00 81 1013.2
20260903125642 78 307 0.0 0.0 0.00 0.00 0.00 83 1013.3
20260903125137 77 308 0.0 1.0 0.00 0.00 0.00 85 1013.2
20260903124638 76 308 1.0 1.0 0.00 0.00 0.00 86 1013.2
20260903124137 76 279 0.0 0.0 0.00 0.00 0.00 86 1013.2
20260903123631 75 278 0.0 1.0 0.00 0.00 0.00 88 1013.3
20260903123130 75 344 2.0 3.0 0.00 0.00 0.00 88 1013.4
20260903122624 75 326 2.0 2.0 0.00 0.00 0.00 88 1013.0
20260903122119 75 306 0.0 2.0 0.00 0.00 0.00 88 1013.0
20260903121618 75 301 1.0 2.0 0.00 0.00 0.00 88 1013.0
20260903121113 75 279 0.0 1.0 0.00 0.00 0.00 87 1012.6
20260903120612 75 236 2.0 3.0 0.00 0.00 0.00 87 1012.5
20260903120107 75 245 2.0 3.0 0.00 0.00 0.00 87 1012.7
20260903115605 75 236 2.0 2.0 0.00 0.00 0.00 88 1012.6
20260903115100 75 237 2.0 3.0 0.00 0.00 0.00 87 1012.4
20260903114555 75 222 2.0 3.0 0.00 0.00 0.00 87 1012.5
20260903114046 75 232 2.0 3.0 0.00 0.00 0.00 87 1012.4
20260903113541 75 221 2.0 3.0 0.00 0.00 0.00 87 1012.4
20260903113037 75 212 3.0 3.0 0.00 0.00 0.00 86 1012.4
20260903112533 75 244 3.0 3.0 0.00 0.00 0.00 86 1012.5
20260903112028 75 211 3.0 5.0 0.00 0.00 0.00 86 1012.2
20260903111526 75 214 3.0 3.0 0.00 0.00 0.00 87 1012.2
20260903111023 75 209 2.0 3.0 0.00 0.00 0.00 87 1012.2
20260903110518 75 213 3.0 3.0 0.00 0.00 0.00 87 1012.1
20260903110013 75 213 3.0 3.0 0.00 0.00 0.00 86 1011.8
20260903105508 76 195 3.0 5.0 0.00 0.00 0.00 86 1012.0
20260903105007 76 207 2.0 5.0 0.00 0.00 0.00 85 1012.1
20260903104502 77 213 4.0 5.0 0.00 0.00 0.00 85 1012.0
20260903103958 77 230 4.0 6.0 0.00 0.00 0.00 84 1012.0
20260903103454 77 217 5.0 5.0 0.00 0.00 0.00 84 1011.9
20260903102949 77 223 3.0 3.0 0.00 0.00 0.00 84 1011.7
20260903102444 77 215 4.0 6.0 0.00 0.00 0.00 83 1011.8
20260903101942 77 222 3.0 5.0 0.00 0.00 0.00 84 1011.8
20260903101432 77 237 2.0 5.0 0.00 0.00 0.00 84 1011.8
20260903100928 77 206 3.0 5.0 0.00 0.00 0.00 83 1011.7
20260903100423 77 220 4.0 5.0 0.00 0.00 0.00 83 1011.7
20260903095920 77 165 3.0 6.0 0.00 0.00 0.00 83 1011.6
20260903095414 77 219 3.0 5.0 0.00 0.00 0.00 83 1011.8
20260903094909 77 211 3.0 6.0 0.00 0.00 0.00 83 1011.8
20260903094403 78 218 4.0 5.0 0.00 0.00 0.00 82 1011.8
20260903093900 78 219 4.0 6.0 0.00 0.00 0.00 82 1011.9
20260903093354 78 210 4.0 6.0 0.00 0.00 0.00 81 1011.8
20260903092850 78 244 3.0 5.0 0.00 0.00 0.00 81 1011.8
20260903092349 78 184 3.0 6.0 0.00 0.00 0.00 81 1011.7
20260903091848 78 212 3.0 5.0 0.00 0.00 0.00 81 1011.6
20260903091348 78 221 5.0 7.0 0.00 0.00 0.00 80 1011.6
20260903090843 79 215 3.0 5.0 0.00 0.00 0.00 80 1011.8
20260903090338 79 217 3.0 6.0 0.00 0.00 0.00 80 1011.6
20260903085836 79 188 3.0 6.0 0.00 0.00 0.00 79 1011.7
20260903085335 79 198 4.0 6.0 0.00 0.00 0.00 79 1011.8
20260903084834 79 228 4.0 6.0 0.00 0.00 0.00 79 1011.6
20260903084333 79 200 4.0 6.0 0.00 0.00 0.00 79 1011.6
20260903083829 80 200 4.0 5.0 0.00 0.00 0.00 79 1011.6
20260903083325 80 216 4.0 6.0 0.00 0.00 0.00 78 1011.8
20260903082823 80 210 3.0 6.0 0.00 0.00 0.00 78 1011.7
20260903082319 80 190 4.0 6.0 0.00 0.00 0.00 78 1011.7
20260903081814 80 198 5.0 5.0 0.00 0.00 0.00 78 1011.6
20260903081309 80 215 4.0 7.0 0.00 0.00 0.00 78 1011.7
20260903080806 80 188 3.0 6.0 0.00 0.00 0.00 78 1011.7
20260903080304 80 213 3.0 6.0 0.00 0.00 0.00 77 1011.6
20260903075802 80 220 3.0 5.0 0.00 0.00 0.00 77 1011.7
20260903075257 80 196 5.0 7.0 0.00 0.00 0.00 77 1011.8
20260903074756 81 218 5.0 8.0 0.00 0.00 0.00 76 1011.8
20260903074252 81 218 4.0 7.0 0.00 0.00 0.00 77 1011.9
20260903073742 81 208 5.0 8.0 0.00 0.00 0.00 76 1011.7
20260903073237 81 210 6.0 7.0 0.00 0.00 0.00 76 1011.9
20260903072733 81 247 4.0 6.0 0.00 0.00 0.00 76 1011.9
20260903072229 81 230 4.0 8.0 0.00 0.00 0.00 76 1011.8
20260903071725 81 209 3.0 6.0 0.00 0.00 0.00 76 1011.9
20260903071215 81 214 4.0 6.0 0.00 0.00 0.00 76 1011.8
20260903070715 81 185 3.0 10.0 0.00 0.00 0.00 76 1011.8
20260903070210 81 210 5.0 7.0 0.00 0.00 0.00 76 1011.9
20260903065705 82 224 6.0 9.0 0.00 0.00 0.00 75 1011.9
20260903065159 81 201 6.0 9.0 0.00 0.00 0.00 76 1011.7
20260903064658 81 205 5.0 8.0 0.00 0.00 0.00 76 1011.8
20260903064153 81 174 5.0 7.0 0.00 0.00 0.00 76 1012.1
20260903063643 81 205 6.0 7.0 0.00 0.00 0.00 76 1012.0
20260903063138 81 209 4.0 7.0 0.00 0.00 0.00 76 1012.0
20260903062634 81 191 5.0 6.0 0.00 0.00 0.00 76 1012.0
20260903062129 81 213 4.0 6.0 0.00 0.00 0.00 76 1011.9
20260903061624 81 237 4.0 7.0 0.00 0.00 0.00 76 1012.0
20260903061123 80 213 4.0 5.0 0.00 0.00 0.00 77 1012.0
20260903060618 81 164 4.0 6.0 0.00 0.00 0.00 77 1012.1
20260903060114 81 213 5.0 6.0 0.00 0.00 0.00 77 1011.9
20260903055611 80 202 4.0 6.0 0.00 0.00 0.00 77 1011.9
20260903055109 80 188 4.0 6.0 0.00 0.00 0.00 78 1011.8
20260903054604 80 230 3.0 6.0 0.00 0.00 0.00 78 1012.1
20260903054101 80 204 3.0 5.0 0.00 0.00 0.00 79 1012.1
20260903053556 80 235 3.0 5.0 0.00 0.00 0.00 79 1012.0
20260903053052 80 191 3.0 5.0 0.00 0.00 0.00 79 1012.0
20260903052548 80 231 3.0 3.0 0.00 0.00 0.00 79 1012.2
20260903052043 80 257 2.0 3.0 0.00 0.00 0.00 79 1012.1
20260903051542 80 247 3.0 3.0 0.00 0.00 0.00 79 1012.3
20260903051038 80 209 2.0 3.0 0.00 0.00 0.00 79 1012.2
20260903050537 81 195 3.0 5.0 0.00 0.00 0.00 78 1012.1
20260903050033 81 212 4.0 5.0 0.00 0.00 0.00 78 1012.2
20260903045532 81 233 4.0 5.0 0.00 0.00 0.00 78 1012.1
20260903045029 81 175 3.0 6.0 0.00 0.00 0.00 77 1012.1
20260903044525 81 211 3.0 6.0 0.00 0.00 0.00 77 1012.1
20260903044020 81 211 3.0 5.0 0.00 0.00 0.00 77 1012.3
20260903043516 81 229 3.0 5.0 0.00 0.00 0.00 77 1012.1
20260903043015 81 211 4.0 6.0 0.00 0.00 0.00 77 1012.3
20260903042510 81 191 3.0 6.0 0.00 0.00 0.00 77 1012.1
20260903042006 81 206 4.0 6.0 0.00 0.00 0.00 77 1012.2
20260903041502 81 204 3.0 5.0 0.00 0.00 0.00 78 1012.3
20260903040957 81 213 3.0 5.0 0.00 0.00 0.00 77 1012.0
20260903040456 82 219 3.0 5.0 0.00 0.00 0.00 77 1012.1
20260903035953 82 217 3.0 6.0 0.00 0.00 0.00 77 1012.4
20260903035442 81 216 3.0 6.0 0.00 0.00 0.00 77 1012.0
20260903034937 81 224 4.0 5.0 0.00 0.00 0.00 77 1012.0
20260903034432 81 238 3.0 5.0 0.00 0.00 0.00 78 1012.3
20260903033927 81 220 3.0 3.0 0.00 0.00 0.00 77 1012.2
20260903033422 81 233 3.0 5.0 0.00 0.00 0.00 77 1012.2
20260903032917 81 211 3.0 5.0 0.00 0.00 0.00 78 1012.1
20260903032413 81 261 1.0 2.0 0.00 0.00 0.00 78 1012.3
20260903031913 82 229 1.0 3.0 0.00 0.00 0.00 77 1012.0
20260903031413 82 221 3.0 3.0 0.00 0.00 0.00 76 1012.2
20260903030903 82 187 3.0 3.0 0.00 0.00 0.00 75 1012.1
20260903030359 82 229 2.0 6.0 0.00 0.00 0.00 76 1012.0
20260903025855 82 242 2.0 2.0 0.00 0.00 0.00 76 1012.0
20260903025350 82 263 2.0 2.0 0.00 0.00 0.00 75 1012.2
20260903024849 82 232 2.0 3.0 0.00 0.00 0.00 75 1012.3
20260903024343 83 212 2.0 3.0 0.00 0.00 0.00 75 1012.0
20260903023839 83 225 3.0 3.0 0.00 0.00 0.00 74 1012.0
20260903023334 83 211 3.0 5.0 0.00 0.00 0.00 74 1012.1
20260903022829 83 227 3.0 5.0 0.00 0.00 0.00 74 1011.9
20260903022329 84 204 3.0 5.0 0.00 0.00 0.00 74 1012.0
20260903021823 84 225 2.0 3.0 0.00 0.00 0.00 74 1012.0
20260903021319 84 206 3.0 3.0 0.00 0.00 0.00 73 1012.0
20260903020818 84 232 2.0 3.0 0.00 0.00 0.00 73 1012.1
20260903020313 84 173 3.0 5.0 0.00 0.00 0.00 73 1011.9
20260903015809 84 223 2.0 3.0 0.00 0.00 0.00 74 1012.1
20260903015309 84 210 3.0 3.0 0.00 0.00 0.00 73 1012.0
20260903014804 84 198 3.0 5.0 0.00 0.00 0.00 73 1011.8
20260903014304 84 218 3.0 5.0 0.00 0.00 0.00 74 1011.9
20260903013759 85 200 2.0 5.0 0.00 0.00 0.00 74 1011.8
20260903013258 85 210 3.0 3.0 0.00 0.00 0.00 73 1011.7
20260903012757 85 253 2.0 3.0 0.00 0.00 0.00 73 1011.6
20260903012251 86 181 3.0 5.0 0.00 0.00 0.00 73 1011.8
20260903011746 86 190 3.0 6.0 0.00 0.00 0.00 73 1011.6
20260903011245 86 191 4.0 6.0 0.00 0.00 0.00 73 1011.5
20260903010741 86 196 4.0 6.0 0.00 0.00 0.00 74 1011.6
20260903010236 86 165 4.0 5.0 0.00 0.00 0.00 73 1011.7
20260903005734 86 196 4.0 5.0 0.00 0.00 0.00 73 1011.5